This is the latest recevied weather packets stored in our database for station/object NK2J. If no packets are shown the sender has not sent any weather packets the latest 10 day(s).
| Time | Temp. | Humidity | Pressure | Rain* | Wind** | Luminosity | Snow |
|---|---|---|---|---|---|---|---|
| 1777915747 | 25° C | 36% | 1014.6 hPa | 0 mm | - | 277 W/m² | - |
| 1777915442 | 25° C | 35% | 1014.9 hPa | 0 mm | - | 329 W/m² | - |
| 1777915139 | 25° C | 37% | 1014.8 hPa | 0 mm | - | 380 W/m² | - |
| 1777914836 | 25° C | 35% | 1014.9 hPa | 0 mm | - | 359 W/m² | - |
| 1777914533 | 25° C | 35% | 1015 hPa | 0 mm | - | 457 W/m² | - |
| 1777914230 | 25.56° C | 37% | 1014.8 hPa | 0 mm | - | 356 W/m² | - |
| 1777913926 | 25° C | 35% | 1014.8 hPa | 0 mm | - | 386 W/m² | - |
| 1777913623 | 25° C | 35% | 1014.9 hPa | 0 mm | - | 365 W/m² | - |
| 1777913319 | 25° C | 35% | 1014.8 hPa | 0 mm | - | 402 W/m² | - |
| 1777913016 | 25° C | 35% | 1014.6 hPa | 0 mm | - | 393 W/m² | - |
| 1777912712 | 25° C | 35% | 1014.8 hPa | 0 mm | - | 344 W/m² | - |
| 1777912408 | 25° C | 35% | 1014.8 hPa | 0 mm | - | 442 W/m² | - |
| 1777912105 | 24.44° C | 35% | 1014.8 hPa | 0 mm | - | 347 W/m² | - |
| 1777911800 | 24.44° C | 35% | 1014.7 hPa | 0 mm | - | 387 W/m² | - |
| 1777911498 | 24.44° C | 35% | 1014.6 hPa | 0 mm | - | 328 W/m² | - |
| 1777911194 | 24.44° C | 35% | 1014.5 hPa | 0 mm | - | 331 W/m² | - |
| 1777910892 | 24.44° C | 37% | 1014.7 hPa | 0 mm | - | 400 W/m² | - |
| 1777910588 | 24.44° C | 36% | 1014.7 hPa | 0 mm | - | 392 W/m² | - |
| 1777910286 | 23.89° C | 36% | 1014.6 hPa | 0 mm | - | 360 W/m² | - |
| 1777909982 | 23.89° C | 37% | 1014.8 hPa | 0 mm | - | 317 W/m² | - |
| 1777909679 | 23.89° C | 39% | 1014.8 hPa | 0 mm | - | 289 W/m² | - |
| 1777909376 | 23.89° C | 38% | 1014.9 hPa | 0 mm | - | 250 W/m² | - |
| 1777909074 | 23.89° C | 38% | 1014.5 hPa | 0 mm | - | 248 W/m² | - |
| 1777908772 | 23.33° C | 43% | 1014.7 hPa | 0 mm | - | 215 W/m² | - |
| 1777908469 | 23.33° C | 43% | 1014.5 hPa | 0 mm | - | 215 W/m² | - |
* Rain latest hour (hover to see other rain measurements)
** Current wind speed in m/s (hover to see current wind gust speed)